Hourly Weather Alloza

Today, 27 November, Friday

Time Temperature Precipitation Wind Pressure Humidity
00:00 +9°C° 0 mm 2 mps 700 mmHg 96%
01:00 +9°C° 0.3 mm 2 mps 700 mmHg 96%
02:00 +9°C° 0.3 mm 2 mps 700 mmHg 96%
03:00 +9°C° 0.3 mm 2 mps 699 mmHg 96%
04:00 +9°C° 0.3 mm 3 mps 699 mmHg 96%
05:00 +9°C° 0.3 mm 3 mps 699 mmHg 97%
06:00 +9°C° 0.3 mm 3 mps 699 mmHg 97%
07:00 +9°C° 0.2 mm 3 mps 699 mmHg 95%
08:00 +10°C° 0.2 mm 4 mps 699 mmHg 93%
09:00 +10°C° 0.2 mm 4 mps 699 mmHg 90%
10:00 +10°C° 0.3 mm 4 mps 698 mmHg 88%
11:00 +9°C° 0.3 mm 5 mps 698 mmHg 86%
12:00 +10°C° 0.3 mm 6 mps 698 mmHg 83%
13:00 +10°C° 0.7 mm 6 mps 697 mmHg 83%
14:00 +10°C° 0.7 mm 6 mps 697 mmHg 83%
15:00 +10°C° 0.7 mm 7 mps 696 mmHg 83%
16:00 +9°C° 0.7 mm 6 mps 696 mmHg 85%
17:00 +9°C° 0.7 mm 6 mps 696 mmHg 88%
18:00 +8°C° 0.7 mm 5 mps 696 mmHg 91%
19:00 +8°C° 0.7 mm 5 mps 696 mmHg 92%
20:00 +8°C° 0.7 mm 4 mps 696 mmHg 94%
21:00 +8°C° 0.7 mm 4 mps 696 mmHg 95%
22:00 +8°C° 0.5 mm 4 mps 696 mmHg 95%
23:00 +8°C° 0.5 mm 4 mps 696 mmHg 95%

Tomorrow, 28 November, Saturday

Time Temperature Precipitation Wind Pressure Humidity
00:00 +9°C° 0.5 mm 3 mps 695 mmHg 95%
01:00 +9°C° 0.2 mm 3 mps 695 mmHg 95%
02:00 +9°C° 0.2 mm 3 mps 695 mmHg 95%
03:00 +9°C° 0.2 mm 3 mps 694 mmHg 94%
04:00 +9°C° 0.2 mm 3 mps 694 mmHg 95%
05:00 +9°C° 0.2 mm 2 mps 694 mmHg 96%
06:00 +9°C° 0.2 mm 2 mps 694 mmHg 97%
07:00 +9°C° 0.1 mm 2 mps 694 mmHg 95%
08:00 +9°C° 0.1 mm 2 mps 695 mmHg 94%
09:00 +9°C° 0.1 mm 2 mps 695 mmHg 93%
10:00 +9°C° 0.1 mm 2 mps 695 mmHg 92%
11:00 +9°C° 0.1 mm 2 mps 695 mmHg 90%
12:00 +9°C° 0.1 mm 2 mps 694 mmHg 89%
13:00 +10°C° 0 mm 2 mps 695 mmHg 86%
14:00 +10°C° 0 mm 2 mps 695 mmHg 84%
15:00 +11°C° 0 mm 1 mps 695 mmHg 81%
16:00 +11°C° 0 mm 1 mps 695 mmHg 84%
17:00 +10°C° 0 mm 1 mps 696 mmHg 86%
18:00 +10°C° 0 mm 1 mps 696 mmHg 88%
19:00 +10°C° 0 mm 1 mps 697 mmHg 88%
20:00 +10°C° 0 mm 1 mps 697 mmHg 88%
21:00 +10°C° 0 mm 1 mps 698 mmHg 88%
22:00 +10°C° 0 mm 1 mps 698 mmHg 89%
23:00 +10°C° 0 mm 1 mps 698 mmHg 90%

Day after tomorrow, 29 November, Sunday

Time Temperature Precipitation Wind Pressure Humidity
00:00 +8°C° 0 mm 0 mps 698 mmHg 90%
01:00 +9°C° 0 mm 1 mps 699 mmHg 90%
02:00 +9°C° 0 mm 1 mps 699 mmHg 90%
03:00 +8°C° 0 mm 1 mps 699 mmHg 90%
04:00 +8°C° 0 mm 1 mps 699 mmHg 89%
05:00 +8°C° 0 mm 1 mps 699 mmHg 89%
06:00 +8°C° 0 mm 1 mps 700 mmHg 88%
07:00 +9°C° 0 mm 1 mps 700 mmHg 82%
08:00 +10°C° 0 mm 1 mps 701 mmHg 77%
09:00 +12°C° 0 mm 1 mps 702 mmHg 72%
10:00 +13°C° 0 mm 1 mps 702 mmHg 67%
11:00 +13°C° 0 mm 1 mps 702 mmHg 63%
12:00 +14°C° 0 mm 1 mps 702 mmHg 59%
13:00 +15°C° 0 mm 1 mps 702 mmHg 60%
14:00 +15°C° 0 mm 2 mps 702 mmHg 60%
15:00 +15°C° 0 mm 2 mps 702 mmHg 60%
16:00 +13°C° 0 mm 1 mps 702 mmHg 69%
17:00 +11°C° 0 mm 1 mps 702 mmHg 78%
18:00 +9°C° 0 mm 0 mps 702 mmHg 86%
19:00 +9°C° 0 mm 0 mps 702 mmHg 86%
20:00 +8°C° 0 mm 0 mps 702 mmHg 86%
21:00 +8°C° 0 mm 0 mps 703 mmHg 86%
22:00 +8°C° 0 mm 0 mps 703 mmHg 85%
23:00 +8°C° 0 mm 0 mps 703 mmHg 85%

30 November, Monday

Time Temperature Precipitation Wind Pressure Humidity
00:00 +7°C° 0 mm 0 mps 703 mmHg 84%
01:00 +7°C° 0 mm 0 mps 703 mmHg 84%
02:00 +7°C° 0 mm 0 mps 703 mmHg 84%
03:00 +6°C° 0 mm 0 mps 703 mmHg 85%
04:00 +6°C° 0 mm 0 mps 703 mmHg 85%
05:00 +6°C° 0 mm 0 mps 703 mmHg 85%
06:00 +6°C° 0 mm 0 mps 703 mmHg 85%
07:00 +7°C° 0 mm 0 mps 704 mmHg 82%
08:00 +9°C° 0 mm 0 mps 704 mmHg 78%
09:00 +10°C° 0 mm 0 mps 705 mmHg 75%
10:00 +11°C° 0 mm 0 mps 705 mmHg 71%
11:00 +13°C° 0 mm 1 mps 705 mmHg 66%
12:00 +14°C° 0 mm 1 mps 705 mmHg 62%
13:00 +14°C° 0 mm 1 mps 705 mmHg 64%
14:00 +13°C° 0 mm 1 mps 705 mmHg 66%
15:00 +13°C° 0 mm 2 mps 705 mmHg 67%
16:00 +12°C° 0 mm 1 mps 705 mmHg 75%
17:00 +11°C° 0 mm 1 mps 705 mmHg 82%
18:00 +9°C° 0 mm 0 mps 705 mmHg 89%
19:00 +8°C° 0 mm 0 mps 705 mmHg 89%
20:00 +8°C° 0 mm 0 mps 706 mmHg 89%
21:00 +8°C° 0 mm 0 mps 706 mmHg 89%
22:00 +8°C° 0 mm 0 mps 706 mmHg 89%
23:00 +7°C° 0 mm 0 mps 706 mmHg 89%

1 December, Tuesday

Time Temperature Precipitation Wind Pressure Humidity
00:00 +7°C° 0 mm 0 mps 706 mmHg 89%
01:00 +7°C° 0 mm 0 mps 706 mmHg 90%
02:00 +7°C° 0 mm 0 mps 706 mmHg 90%
03:00 +6°C° 0 mm 0 mps 706 mmHg 91%
04:00 +6°C° 0 mm 0 mps 706 mmHg 91%
05:00 +6°C° 0 mm 0 mps 705 mmHg 92%
06:00 +5°C° 0 mm 0 mps 705 mmHg 93%
07:00 +7°C° 0 mm 0 mps 706 mmHg 89%
08:00 +8°C° 0 mm 0 mps 706 mmHg 85%
09:00 +9°C° 0 mm 0 mps 707 mmHg 82%
10:00 +10°C° 0 mm 0 mps 706 mmHg 79%
11:00 +11°C° 0 mm 1 mps 706 mmHg 75%
12:00 +12°C° 0 mm 1 mps 706 mmHg 72%
13:00 +12°C° 0 mm 1 mps 706 mmHg 73%
14:00 +12°C° 0 mm 1 mps 706 mmHg 75%
15:00 +12°C° 0 mm 1 mps 706 mmHg 76%
16:00 +11°C° 0 mm 1 mps 706 mmHg 82%
17:00 +10°C° 0 mm 1 mps 706 mmHg 87%
18:00 +8°C° 0 mm 0 mps 706 mmHg 93%
19:00 +7°C° 0 mm 0 mps 706 mmHg 93%
20:00 +7°C° 0 mm 0 mps 706 mmHg 93%
21:00 +6°C° 0 mm 0 mps 706 mmHg 93%
22:00 +6°C° 0 mm 0 mps 705 mmHg 93%
23:00 +6°C° 0 mm 0 mps 705 mmHg 93%

2 December, Wednesday

Time Temperature Precipitation Wind Pressure Humidity
00:00 +6°C° 0 mm 0 mps 705 mmHg 93%
01:00 +6°C° 0 mm 0 mps 705 mmHg 93%
02:00 +6°C° 0 mm 0 mps 705 mmHg 92%
03:00 +5°C° 0 mm 0 mps 704 mmHg 92%
04:00 +5°C° 0 mm 0 mps 704 mmHg 92%
05:00 +5°C° 0 mm 0 mps 704 mmHg 92%
06:00 +5°C° 0 mm 0 mps 703 mmHg 93%
07:00 +6°C° 0 mm 0 mps 703 mmHg 88%
08:00 +7°C° 0 mm 0 mps 703 mmHg 84%
09:00 +9°C° 0 mm 0 mps 704 mmHg 79%
10:00 +10°C° 0 mm 0 mps 703 mmHg 76%
11:00 +11°C° 0 mm 1 mps 703 mmHg 72%
12:00 +12°C° 0 mm 1 mps 702 mmHg 68%
13:00 +12°C° 0 mm 1 mps 702 mmHg 71%
14:00 +12°C° 0 mm 2 mps 701 mmHg 73%
15:00 +12°C° 0 mm 2 mps 701 mmHg 76%
16:00 +11°C° 0.1 mm 1 mps 701 mmHg 81%
17:00 +10°C° 0.1 mm 1 mps 701 mmHg 85%
18:00 +9°C° 0.1 mm 0 mps 700 mmHg 90%
19:00 +10°C° 0.2 mm 1 mps 700 mmHg 91%
20:00 +9°C° 0.2 mm 1 mps 700 mmHg 91%
21:00 +9°C° 0.2 mm 1 mps 700 mmHg 91%
22:00 +9°C° 0.1 mm 1 mps 700 mmHg 90%
23:00 +10°C° 0.1 mm 1 mps 700 mmHg 90%
Show more